Overview Statistics Trail Chart Weather Telemetry Raw packets
 

This is the latest recevied weather packets stored in our database for station/object KG5MMT-15. If no packets are shown the sender has not sent any weather packets the latest 10 day(s).

<< 39 40 41 42 43 44 45 >>
Time Temp. Humidity Pressure Rain* Wind** Luminosity Snow
1788429165 13.89° C 61% 0 hPa 0 mm - - -
1788428865 13.89° C 62% 0 hPa 0 mm - - -
1788428565 13.33° C 64% 0 hPa 0 mm - - -
1788428265 13.33° C 66% 0 hPa 0 mm - - -
1788427965 12.78° C 67% 0 hPa 0 mm - - -
1788427665 13.33° C 68% 0 hPa 0 mm - - -
1788427365 13.33° C 65% 0 hPa 0 mm - - -
1788427065 13.89° C 64% 0 hPa 0 mm - - -
1788426765 14.44° C 64% 0 hPa 0 mm - - -
1788426465 14.44° C 60% 0 hPa 0 mm - - -
1788426165 14.44° C 59% 0 hPa 0 mm - - -
1788425865 14.44° C 59% 0 hPa 0 mm - - -
1788425565 13.89° C 60% 0 hPa 0 mm - - -
1788425277 13.89° C 61% 0 hPa 0 mm - - -
1788424965 13.89° C 60% 0 hPa 0 mm - - -
1788424665 14.44° C 62% 0 hPa 0 mm - - -
1788424365 15° C 62% 0 hPa 0 mm - - -
1788424065 15° C 59% 0 hPa 0 mm - - -
1788423765 15° C 58% 0 hPa 0 mm - - -
1788423465 15.56° C 58% 0 hPa 0 mm - - -
1788423165 15.56° C 57% 0 hPa 0 mm - - -
1788422865 16.11° C 57% 0 hPa 0 mm - - -
1788422565 16.67° C 52% 0 hPa 0 mm - - -
1788422265 16.67° C 50% 0 hPa 0 mm - - -
1788421965 16.67° C 52% 0 hPa 0 mm - - -

* Rain latest hour (hover to see other rain measurements)
** Current wind speed in m/s (hover to see current wind gust speed)